Theta_e
352 355 356 356 355 356 355 355 355 354 356 349 344 346 348 351 351 351 350 349 347 346 346 346 346 346 346 346 345 347 349 351 350 348 347 348 347 347 347 347 347 343 341 342 341 341 342 342 339 338 339 339 338 338 337 336 338 339 338 337 336 336 336 336 337 339 338 336 340 343 344 344 343 343 345 346 344 343 343 343 344 344 345 345 346 346 345 345 345 345 346 345 346 346 345 345 344
354 357 356 355 355 355 354 356 354 350 351 347 346 349 350 353 351 349 348 348 346 345 346 344 345 345 346 346 345 347 348 349 350 350 349 348 348 347 346 346 346 343 342 341 342 344 344 343 341 340 340 340 339 337 335 333 335 337 337 338 337 335 335 337 337 339 340 337 340 343 342 343 343 344 345 345 345 344 342 343 344 345 345 345 345 345 344 344 345 345 345 345 345 345 345 344 343
355 356 356 355 355 356 355 357 353 349 349 346 348 353 351 352 349 348 347 346 346 346 346 345 346 346 345 345 345 347 347 348 348 349 349 347 347 346 346 346 345 343 343 343 344 343 342 343 343 342 342 341 340 338 336 334 334 334 334 337 339 336 335 339 338 340 341 339 341 342 341 342 343 344 345 345 344 343 342 343 343 344 344 344 344 343 344 344 344 345 344 344 344 344 343 341 340
355 356 356 355 354 354 356 357 355 350 348 346 347 352 352 350 348 347 347 346 346 346 345 345 346 347 345 345 345 345 346 347 348 348 348 347 346 345 346 346 345 344 344 344 343 342 341 342 342 341 343 343 341 340 338 337 336 335 334 336 338 336 336 340 340 340 342 341 342 342 342 343 344 344 344 345 345 344 343 343 342 343 344 344 345 343 343 343 343 344 343 343 343 343 342 341 340
356 356 355 356 355 353 356 356 355 351 348 349 348 353 352 349 348 346 346 347 347 346 345 346 345 346 346 345 345 345 345 347 347 347 347 346 346 346 346 346 344 342 344 345 343 341 341 341 342 341 342 343 342 341 339 339 339 338 337 337 337 337 339 341 341 341 343 341 342 343 343 344 345 345 344 344 346 345 344 343 341 342 343 344 344 344 344 343 342 342 342 341 340 341 341 341 340
356 355 354 355 354 354 357 354 353 353 353 353 352 353 351 348 348 346 346 347 347 346 345 344 343 344 346 346 346 346 345 347 347 346 346 346 346 346 347 345 344 343 344 347 343 341 342 341 342 341 342 342 341 341 340 339 338 339 339 339 338 338 341 342 341 342 343 342 342 343 343 344 345 345 345 344 345 345 345 343 341 341 342 343 344 344 344 343 342 341 340 339 338 339 337 336 335
356 355 354 355 355 355 357 353 352 355 352 352 354 351 349 348 348 346 346 346 346 346 344 343 343 344 344 345 346 346 346 347 347 346 346 346 347 347 346 345 346 344 344 346 342 341 342 340 340 341 341 340 340 341 340 339 339 340 340 340 340 340 342 342 341 341 343 342 342 344 344 345 344 345 345 345 345 345 344 343 342 341 342 343 344 344 344 343 342 340 339 339 339 338 336 333 333
354 355 353 356 356 356 357 354 353 356 353 352 352 349 350 348 348 347 346 346 345 346 345 345 344 344 344 346 347 347 347 347 347 346 347 347 347 346 346 345 345 343 343 344 342 341 340 339 339 339 340 340 340 341 340 341 340 342 341 341 342 342 342 341 341 341 342 343 343 344 345 345 344 345 345 344 344 344 343 343 343 342 341 342 343 343 343 342 341 339 339 338 339 338 338 337 337
353 355 354 355 357 357 355 352 353 355 355 354 352 351 350 348 348 348 347 346 347 347 346 345 345 345 346 347 348 348 347 347 347 347 347 347 347 347 346 346 345 345 344 343 342 340 339 340 339 339 341 341 342 341 340 342 342 342 341 341 341 341 341 342 342 340 341 344 344 344 344 345 345 345 344 343 343 342 342 344 343 342 341 341 342 342 342 341 339 339 338 337 337 337 338 340 340
353 355 355 357 358 354 350 353 355 355 354 354 353 352 351 349 348 348 347 346 347 347 346 345 344 346 346 347 348 347 347 347 348 347 348 348 347 347 347 346 344 345 343 341 340 339 339 339 340 340 341 342 343 342 341 342 342 343 342 341 341 341 341 342 342 341 340 343 344 344 344 342 343 344 343 343 342 342 343 344 343 342 341 341 342 340 338 337 337 337 337 337 336 335 336 338 339
353 354 355 357 357 352 351 355 357 357 355 354 354 353 351 349 348 348 348 347 347 345 344 344 345 346 347 347 347 347 347 347 347 347 347 348 346 346 347 346 345 341 340 340 340 340 340 340 340 340 341 342 343 342 342 342 343 343 342 342 342 341 342 343 342 341 341 342 343 343 341 339 342 344 343 343 343 343 342 343 344 343 341 340 340 338 334 331 331 331 332 334 336 336 335 335 335
354 356 357 358 356 354 355 355 355 357 357 354 356 353 351 349 348 348 346 347 345 346 345 344 345 345 345 346 346 346 346 346 346 346 346 347 347 348 347 347 347 345 345 344 342 341 342 341 341 340 341 342 343 343 343 343 344 344 343 343 343 343 343 343 343 343 343 343 342 341 338 337 342 344 344 343 343 343 342 342 343 342 340 339 339 338 335 334 334 331 328 328 329 331 332 331 329
353 356 361 362 357 354 355 356 356 356 355 356 357 354 352 349 348 347 347 346 345 346 345 344 344 344 345 345 345 345 345 345 346 345 346 347 347 348 346 347 350 350 350 349 345 344 343 342 341 341 340 341 342 343 343 344 344 343 343 344 343 344 344 343 343 344 344 344 342 340 339 339 342 344 344 344 343 342 341 342 342 342 340 339 339 339 338 338 339 338 335 330 327 325 325 325 323
353 354 359 363 359 355 354 356 356 353 354 356 356 356 355 348 347 348 347 347 346 346 344 344 344 344 344 344 345 345 346 345 345 346 346 347 347 348 347 347 349 349 348 347 347 346 345 344 343 342 340 342 343 343 343 344 344 344 343 344 344 344 344 343 343 345 344 344 342 341 341 340 343 344 344 344 343 342 341 342 343 342 341 339 340 340 340 340 340 339 337 335 329 323 321 321 321
351 352 355 360 358 354 351 354 355 353 354 354 355 357 354 348 347 347 347 346 344 345 344 344 345 342 342 344 345 345 345 345 346 346 346 347 347 348 348 346 347 347 345 345 346 345 345 345 344 342 341 343 345 345 344 344 344 344 344 345 345 343 343 342 344 346 344 343 342 342 342 342 342 343 344 344 343 343 343 342 342 342 341 341 341 339 337 336 336 335 333 331 327 323 321 322 322
348 351 352 356 356 350 349 353 354 355 354 353 355 357 352 349 350 348 347 345 343 344 344 345 343 342 343 345 345 344 345 345 346 347 346 347 347 348 348 347 347 347 346 345 345 345 344 344 344 342 342 344 345 344 344 344 344 344 345 346 345 343 343 343 344 345 344 343 342 342 342 342 341 341 343 343 344 344 343 343 342 342 341 341 339 335 333 333 333 332 330 328 325 323 322 323 322
346 347 348 354 353 349 351 352 351 353 352 352 355 357 354 351 352 348 346 343 342 343 343 344 343 342 343 345 345 345 345 346 346 345 346 347 348 349 347 348 347 346 347 347 346 345 344 344 344 343 343 344 345 344 343 344 344 344 345 345 344 342 343 344 344 344 344 344 343 343 343 341 340 340 341 341 343 344 343 343 343 342 342 340 336 333 333 333 331 329 328 326 324 327 329 329 328
344 342 348 354 353 350 354 353 352 354 353 353 354 355 354 353 351 347 344 343 342 343 342 343 342 344 345 345 344 344 345 346 345 346 346 346 348 348 348 348 348 347 348 348 347 346 345 344 343 343 344 344 344 344 343 344 344 345 345 344 343 342 344 345 344 343 343 343 343 343 342 341 340 339 339 341 342 343 343 342 342 342 341 339 335 334 335 335 334 333 332 330 331 337 341 342 340
344 344 349 352 351 353 356 354 354 355 354 353 353 353 354 353 349 347 345 342 342 342 343 344 344 345 345 345 344 345 346 345 345 344 345 346 347 347 348 348 348 349 348 348 348 347 346 345 344 344 343 344 344 344 344 344 344 344 344 343 342 343 344 344 343 343 342 342 342 342 341 340 339 338 339 340 341 342 342 341 341 342 340 337 335 335 336 338 339 340 340 340 342 344 347 348 347
346 345 349 350 352 355 356 357 356 356 355 355 353 353 352 352 348 349 348 342 342 342 344 346 346 345 345 344 345 345 345 345 344 344 345 346 346 346 348 348 347 348 347 348 349 348 348 346 345 344 344 344 344 344 344 344 343 344 344 342 341 343 343 343 344 344 342 342 342 341 341 340 340 340 339 340 341 342 341 341 342 342 339 337 336 336 337 340 342 343 344 345 346 346 347 348 348
346 345 350 352 352 353 355 358 358 357 356 356 356 353 353 352 349 351 348 342 343 343 345 346 345 344 344 344 345 345 345 344 344 344 345 346 345 345 347 348 347 347 347 347 347 347 346 345 344 343 344 345 343 343 343 343 343 343 343 343 342 343 344 343 343 343 342 341 342 341 340 341 340 340 340 340 340 340 340 341 341 340 339 336 335 336 340 343 344 345 346 345 346 346 348 348 348
341 343 349 352 351 353 356 357 358 358 358 357 357 355 354 352 351 351 348 344 342 342 346 346 345 344 344 344 344 344 345 345 345 345 345 345 345 346 347 347 348 347 347 347 346 345 346 345 343 342 343 344 344 344 343 343 344 343 343 343 342 343 344 343 342 341 340 340 341 341 341 342 341 341 339 339 338 339 341 343 343 341 341 339 338 342 345 345 345 346 347 346 345 345 346 347 348
340 340 347 351 350 352 355 355 357 358 357 358 358 357 355 352 352 351 349 349 346 343 345 346 344 343 343 343 344 345 345 345 344 344 345 344 345 346 347 347 348 347 347 349 347 346 347 346 344 343 343 345 345 344 344 344 345 344 343 343 342 342 344 342 339 340 339 338 339 341 342 341 342 342 341 340 339 342 345 347 345 344 345 345 345 347 346 346 346 347 347 346 345 344 343 345 347
339 339 344 348 349 352 352 352 356 357 356 357 357 358 357 354 352 350 350 351 348 343 344 345 344 344 343 343 345 345 345 345 345 344 344 344 345 346 346 347 347 347 347 349 348 347 348 346 346 344 343 344 344 344 345 344 344 344 344 344 341 341 344 342 338 339 338 336 337 340 342 341 342 343 343 342 343 346 347 348 347 347 349 347 346 347 346 346 346 346 345 345 344 343 344 345 346
338 338 342 346 350 355 354 353 355 357 356 354 356 356 357 356 353 351 351 351 346 342 344 344 344 343 343 343 344 345 346 345 344 345 344 344 346 346 346 347 348 347 347 348 348 348 348 346 346 345 343 343 343 344 344 343 343 344 344 344 342 341 342 341 340 339 337 336 337 339 341 342 343 344 344 345 346 347 347 348 348 348 348 347 346 347 346 346 346 345 345 346 345 344 346 346 344
340 340 342 346 352 356 356 356 357 357 355 354 356 358 357 356 355 352 352 350 344 342 345 344 344 344 343 344 345 345 346 345 344 345 345 345 346 346 347 347 348 347 348 348 348 348 348 347 347 346 344 343 343 343 342 342 344 344 344 343 344 343 340 340 344 342 339 338 339 340 342 343 345 346 347 347 347 347 347 349 349 347 347 347 347 348 347 346 347 347 346 346 347 345 346 345 343
341 341 344 347 352 356 356 357 357 357 355 354 355 357 357 358 357 354 350 348 344 342 344 343 344 344 344 345 345 346 346 345 345 345 346 346 346 347 347 347 347 347 347 348 347 347 347 348 348 347 344 343 344 344 342 342 343 343 344 344 346 345 340 340 344 343 340 340 340 341 343 345 346 347 347 347 347 348 348 348 348 347 346 346 347 348 348 346 346 348 347 346 347 347 346 344 344
338 340 342 345 351 356 355 355 356 356 355 353 353 354 354 357 358 354 348 347 344 342 344 343 343 343 344 345 346 346 346 345 346 346 346 347 347 347 346 347 347 347 348 348 348 347 347 348 347 346 344 343 343 343 343 342 342 343 343 345 345 344 342 340 341 340 337 337 338 340 342 345 346 347 347 346 348 349 349 348 347 347 347 347 347 348 348 346 344 346 346 345 346 347 346 344 345
336 338 338 346 355 357 354 355 356 355 355 353 353 352 352 356 357 353 348 348 344 341 343 343 344 343 344 346 347 346 346 347 346 347 347 346 348 347 347 348 347 347 348 347 347 347 347 348 347 344 344 344 342 343 345 343 343 343 342 343 344 344 345 344 343 341 336 333 333 335 339 342 345 347 346 347 348 348 348 347 347 347 348 347 347 348 348 347 347 347 345 344 346 347 345 345 345
337 338 336 343 353 354 354 355 355 353 353 352 352 353 354 355 353 349 349 349 346 343 343 343 343 344 345 346 347 347 347 347 347 347 347 347 347 347 348 347 347 348 348 347 347 348 347 347 347 345 344 344 344 345 346 345 345 344 343 343 345 347 347 347 347 345 341 338 337 338 342 346 347 347 347 348 346 345 347 347 346 348 347 347 347 348 349 349 350 348 344 344 346 347 345 343 345
335 339 340 344 343 348 356 353 353 352 351 354 353 353 353 352 351 347 348 349 348 346 342 343 344 343 347 347 348 349 349 347 347 347 347 348 348 348 348 348 349 348 347 347 347 348 347 347 348 347 346 346 346 346 347 347 348 345 343 345 347 348 348 348 348 346 347 346 344 345 346 346 344 343 346 347 345 345 347 347 347 347 346 346 349 348 349 350 350 349 346 345 345 346 345 344 345
335 335 335 343 341 345 356 352 352 353 351 355 352 350 351 351 350 348 349 350 349 347 343 344 345 345 348 347 348 348 348 348 347 348 348 349 349 348 348 348 349 346 346 348 347 347 347 348 348 348 349 348 346 347 346 346 347 346 345 345 346 347 347 347 347 346 348 346 342 342 341 338 337 342 346 347 347 347 347 347 347 346 345 347 350 349 349 349 350 350 347 344 345 344 345 345 345
335 335 335 344 341 344 354 351 352 354 351 354 351 349 351 350 351 351 351 351 349 346 343 344 345 347 348 347 349 348 348 348 347 347 348 349 349 349 349 349 347 346 347 348 347 347 347 348 347 349 349 346 346 346 344 345 346 347 347 347 346 346 347 346 346 346 347 345 339 338 339 337 338 343 345 347 348 347 347 347 345 346 348 348 349 349 348 348 349 349 347 346 345 343 343 344 344
327 340 344 346 342 344 349 350 353 353 351 350 347 349 351 350 352 353 351 351 350 346 343 346 346 346 347 346 348 348 347 347 347 347 348 349 349 349 350 349 347 346 347 346 347 346 347 348 347 349 349 346 345 345 345 347 347 348 348 348 348 348 347 346 346 346 347 345 339 338 340 340 341 342 343 346 347 345 346 345 342 346 349 348 349 349 349 350 350 349 347 347 345 342 344 344 343
329 339 342 342 344 346 347 351 353 351 350 349 347 349 351 350 352 352 351 350 349 347 343 346 346 346 347 346 347 348 347 348 347 347 348 349 349 350 350 349 347 347 346 346 347 347 347 349 348 349 350 347 344 343 345 346 346 347 348 348 349 348 346 346 346 345 347 346 340 339 341 341 342 342 343 346 347 346 345 344 342 344 347 349 350 349 349 350 349 347 346 347 346 344 344 344 343
339 342 341 340 343 345 349 353 351 352 352 351 350 350 351 351 352 352 351 350 349 348 344 345 346 346 347 345 346 348 347 348 348 347 348 349 349 350 349 349 348 347 346 346 347 348 349 349 349 350 350 347 342 343 343 341 345 348 347 348 348 347 346 347 347 346 348 347 340 339 341 340 341 341 342 344 346 347 345 343 341 342 347 350 349 349 348 347 347 346 343 345 346 344 344 344 344
341 343 342 342 342 345 351 352 350 352 351 349 351 351 351 350 351 352 352 351 350 349 345 344 345 346 346 344 345 347 347 348 347 348 348 349 349 350 350 350 349 347 346 347 348 349 350 349 349 351 350 344 341 344 344 342 346 348 347 348 348 347 347 347 347 346 348 346 339 338 340 341 341 340 339 340 343 347 346 342 339 343 349 350 350 349 346 346 347 347 344 344 344 344 343 344 345
338 339 340 340 342 347 352 353 351 352 348 347 350 351 353 352 349 352 353 351 350 349 345 342 343 346 346 343 345 346 347 348 347 349 349 349 351 350 351 350 349 349 348 348 349 350 351 349 349 351 350 345 343 346 347 346 347 348 347 348 348 347 347 348 348 348 349 345 338 339 339 339 340 338 338 338 339 344 346 341 340 346 349 349 350 348 344 346 348 348 347 346 345 344 343 343 344
335 338 336 335 341 349 351 352 353 352 349 349 351 352 356 356 351 352 354 352 351 350 348 345 342 345 344 343 345 346 347 348 348 349 349 350 351 350 352 350 350 351 349 349 349 350 351 349 349 350 349 348 346 346 349 348 347 348 347 346 347 347 348 349 348 348 349 344 339 340 340 339 339 338 337 338 336 341 345 340 340 348 350 347 348 346 346 347 348 349 348 346 346 345 344 343 343
332 334 331 333 340 344 343 348 353 352 350 349 352 353 355 356 353 353 355 352 351 350 348 349 344 342 343 342 344 345 346 347 348 349 350 351 351 352 352 351 352 352 351 350 349 350 351 349 348 348 349 349 346 345 348 349 347 347 346 347 346 346 348 349 348 348 348 344 339 340 341 339 340 338 336 339 340 340 343 342 341 345 346 345 343 344 346 347 349 349 347 346 345 345 343 343 344
327 331 329 332 339 339 341 348 352 352 350 349 350 349 351 354 356 360 359 352 350 350 348 350 347 342 343 342 343 344 347 349 348 349 350 351 350 351 352 351 352 352 352 351 349 350 351 349 348 347 347 348 346 345 348 348 348 348 347 348 346 347 350 350 350 350 349 348 343 343 342 339 343 342 338 346 346 338 343 349 346 341 342 344 344 345 348 349 349 349 347 348 346 345 344 341 343
322 329 331 332 336 339 343 347 349 348 346 348 349 346 347 351 356 361 360 354 352 352 351 351 349 344 343 342 342 344 347 348 348 349 350 351 350 351 352 352 352 351 351 352 350 350 351 349 347 345 346 349 347 346 347 346 346 347 349 350 348 348 350 349 349 350 350 350 349 348 344 339 347 346 341 350 349 337 344 350 349 344 341 344 346 348 351 349 349 348 347 349 347 345 344 343 344
320 327 333 332 336 338 340 342 345 344 344 347 349 346 345 348 351 354 354 354 353 351 352 353 352 349 345 343 341 343 346 346 348 350 350 351 352 352 353 352 352 351 350 352 351 350 352 350 346 343 345 349 347 343 345 344 343 346 348 351 349 348 350 349 349 350 350 350 351 351 346 342 348 347 344 352 349 339 344 347 346 345 342 343 347 349 350 350 350 350 349 350 348 345 346 347 347
322 327 331 332 334 336 336 336 340 343 344 348 350 346 342 342 347 350 350 352 354 352 353 352 351 351 348 345 342 342 345 346 348 350 350 352 353 353 353 352 352 351 350 351 351 351 352 348 344 344 344 347 346 340 343 341 340 343 345 349 350 349 350 350 351 351 349 350 350 351 350 345 347 348 346 351 347 340 343 344 344 346 344 343 347 350 350 350 351 351 349 348 347 347 348 349 347
324 329 330 332 332 335 335 333 334 337 338 340 345 345 340 338 343 349 351 351 354 354 354 353 351 351 350 346 343 341 344 346 348 350 350 351 352 352 353 353 352 352 350 350 350 353 354 347 344 345 344 346 344 338 341 341 338 339 342 349 350 349 352 351 352 352 349 351 352 350 352 347 345 348 347 347 346 342 343 345 344 346 347 345 347 350 350 352 351 349 346 344 347 350 349 349 347
327 329 328 330 332 333 334 334 331 333 335 334 338 341 339 337 341 346 349 350 353 354 353 353 353 352 352 348 344 342 342 345 347 349 350 350 351 352 353 353 352 352 351 350 350 352 355 349 343 343 344 347 343 336 340 341 338 338 342 349 349 348 352 351 352 351 347 351 352 349 351 347 343 347 346 345 345 343 343 346 344 345 349 349 350 352 351 352 352 347 344 343 350 353 350 350 348
327 328 327 328 330 330 333 333 332 333 333 332 334 340 339 336 340 346 348 350 351 352 352 352 352 352 353 350 346 342 342 344 345 348 349 350 351 351 352 353 352 352 351 351 351 352 354 350 344 341 343 346 342 337 339 340 338 337 340 348 349 349 351 351 352 350 346 350 350 349 350 347 346 348 348 346 343 344 343 346 348 348 350 352 352 353 352 351 350 347 345 346 350 351 349 351 351
326 327 327 326 326 328 329 329 332 331 329 331 337 343 339 334 338 346 349 348 348 350 352 352 352 352 353 350 347 343 342 344 344 346 349 350 351 350 352 352 351 351 352 352 351 351 354 351 344 341 342 344 341 337 338 339 338 336 339 346 348 350 351 350 350 349 346 347 347 348 348 347 349 350 351 349 344 348 347 346 352 352 351 352 351 353 352 349 349 350 350 348 347 348 348 350 351
326 326 323 321 321 325 325 325 328 328 327 335 344 345 340 337 342 346 348 347 346 347 350 351 352 354 355 351 348 345 343 343 344 345 348 350 351 350 351 350 349 350 351 352 352 351 354 352 345 341 341 342 340 337 338 338 337 336 338 343 345 348 351 350 350 348 347 345 344 347 345 344 348 349 351 348 345 351 349 345 352 353 351 352 350 351 352 350 351 353 354 351 347 348 348 348 348
325 322 320 318 319 322 323 323 325 325 328 339 346 341 337 337 341 345 347 346 347 346 348 350 350 353 355 352 349 346 343 343 343 344 347 348 351 350 350 349 349 350 351 353 353 352 354 353 346 341 341 341 340 339 338 337 337 335 336 339 340 344 347 348 348 347 347 346 346 348 346 343 345 346 348 347 346 351 349 344 347 350 350 350 347 348 350 351 351 354 354 351 349 350 349 347 347
325 324 322 318 317 320 321 322 323 325 330 339 340 335 332 335 342 346 347 346 345 345 346 350 350 352 353 352 350 347 344 344 343 343 345 347 350 350 349 350 350 352 352 352 353 352 353 353 348 342 341 341 340 340 338 337 337 336 335 337 339 340 342 343 345 347 348 349 350 351 349 346 345 344 346 348 347 350 350 347 345 346 347 345 344 345 345 346 347 349 350 347 347 350 351 349 347
324 326 322 318 318 321 319 321 324 324 327 333 335 333 336 342 346 345 346 347 346 347 346 348 351 352 353 352 352 348 345 343 344 344 345 347 349 348 349 350 350 352 352 351 353 353 354 354 350 344 342 341 340 340 340 338 338 338 336 337 339 340 339 340 342 344 347 349 351 352 352 349 348 345 344 348 349 350 352 351 346 344 345 343 343 344 344 344 344 345 345 344 345 350 354 352 348
322 323 320 321 324 324 320 320 323 324 323 326 332 335 338 341 344 345 347 347 347 349 350 347 348 350 352 353 353 350 346 344 344 343 344 346 348 348 350 351 350 351 352 352 353 353 353 355 352 348 343 341 340 340 340 339 339 340 339 337 339 339 338 340 342 342 345 349 350 351 352 351 350 349 347 347 349 350 351 351 348 347 346 344 344 345 345 344 344 344 344 343 343 350 356 356 351
320 319 322 326 326 325 322 320 321 322 322 323 327 331 334 337 340 345 349 349 349 349 350 348 347 348 351 353 352 351 348 344 344 344 343 345 347 348 349 350 350 351 352 352 353 353 355 355 354 350 345 342 341 340 340 339 338 341 340 337 339 340 340 344 346 346 347 349 349 349 351 352 351 351 350 349 349 350 350 351 351 352 349 346 345 346 345 344 343 343 344 345 345 348 353 352 348
322 321 324 324 320 319 321 320 320 321 322 323 323 326 333 337 339 344 349 350 351 349 349 348 347 347 348 350 351 351 349 346 345 344 344 344 346 347 348 349 351 352 351 352 354 355 355 356 355 353 348 344 344 344 344 342 338 343 344 339 340 344 345 348 349 348 348 349 350 349 349 351 351 350 350 349 350 351 351 349 348 351 353 350 347 347 348 347 346 344 347 351 350 348 347 347 344
323 322 324 324 320 320 321 320 321 320 321 324 324 326 336 341 345 348 350 350 351 350 351 351 348 347 348 349 350 350 350 347 344 344 344 343 345 346 348 350 351 352 352 353 353 353 356 356 356 355 353 351 351 351 350 347 344 348 349 346 344 345 347 349 349 348 348 349 349 349 349 349 350 349 348 348 349 350 351 349 346 348 352 352 350 350 352 352 348 345 348 353 355 353 350 347 345
320 320 318 321 323 323 323 322 321 320 320 323 323 326 337 347 352 353 351 350 350 349 350 352 352 350 348 348 349 349 349 348 345 345 343 344 345 346 348 351 350 351 351 352 352 353 355 357 356 355 355 354 353 352 352 352 351 352 352 351 349 348 347 348 348 348 348 348 348 348 348 347 347 347 346 347 347 349 350 350 350 350 351 351 351 351 352 353 351 348 347 350 351 351 350 348 346
323 322 320 320 321 321 321 320 322 322 320 323 322 324 338 350 354 353 351 350 350 350 350 350 351 353 354 354 352 349 348 348 346 346 344 344 345 345 348 350 350 350 351 351 352 353 354 356 356 355 354 354 353 353 352 353 353 353 352 352 351 350 349 349 349 348 348 348 347 347 347 346 346 346 346 346 347 349 349 350 350 350 349 349 349 350 351 352 353 353 350 349 350 350 348 346 345
Wind_Speed
5 6 6 4 6 8 7 4 2 1 1 3 2 5 6 8 7 7 8 7 6 9 12 10 12 14 12 12 16 18 15 9 5 5 8 16 23 22 22 23 21 19 18 17 16 16 15 14 14 14 14 13 14 14 13 12 10 10 11 12 12 10 9 8 10 11 10 11 12 13 14 13 13 12 12 13 13 14 14 14 15 15 14 13 13 12 13 14 14 15 16 17 18 18 18 18 18
6 6 4 3 6 7 6 4 2 0 2 1 3 3 6 7 6 8 8 8 9 11 13 13 14 16 16 16 18 19 19 18 19 20 23 25 25 23 24 23 21 20 18 17 16 15 14 13 13 13 13 13 13 14 14 11 9 9 10 12 12 10 9 8 9 11 10 10 11 13 15 14 13 12 12 13 13 14 14 14 15 15 14 13 13 12 13 14 15 16 16 17 17 18 18 19 20
4 2 2 2 4 6 5 3 2 2 2 1 4 2 5 7 9 10 10 12 13 13 13 14 13 13 15 15 17 17 17 21 26 29 30 27 28 28 24 22 21 20 19 18 16 14 13 13 13 12 13 13 13 13 13 12 11 11 11 12 11 10 9 9 10 10 10 10 10 12 14 14 13 13 12 13 13 14 15 14 15 15 14 13 12 13 13 15 16 16 16 17 17 17 18 20 21
4 2 2 2 3 4 3 2 1 1 1 1 4 4 6 9 10 9 11 14 13 13 13 13 13 14 15 14 16 17 17 21 23 25 27 25 28 28 25 25 22 20 20 17 15 13 12 12 12 12 11 12 13 13 12 11 11 12 12 12 11 9 8 9 10 10 10 9 9 11 14 14 13 13 12 13 13 13 15 15 15 14 13 13 12 13 14 14 16 16 16 17 17 18 19 21 22
6 0 2 3 2 2 2 2 1 0 1 1 3 5 8 9 9 9 12 13 11 11 13 13 13 16 18 16 15 15 17 21 20 22 25 24 26 27 25 26 21 19 20 16 14 13 11 12 12 11 11 11 12 13 12 11 10 10 11 11 10 9 8 9 10 10 10 10 10 11 14 14 13 13 12 13 13 13 14 14 14 13 13 13 13 13 13 14 15 16 17 17 18 19 20 20 20
5 3 3 2 1 2 2 2 2 1 1 2 4 6 9 8 8 10 13 13 11 11 13 14 14 16 17 18 19 17 19 20 20 22 26 26 26 25 24 23 20 19 20 17 14 13 12 11 11 11 10 10 11 12 11 11 10 9 10 10 10 9 9 10 10 11 11 11 11 12 13 14 14 13 12 12 12 13 13 13 14 13 12 13 13 13 14 15 15 16 17 18 18 18 19 19 19
2 3 4 1 1 2 2 3 4 1 1 2 7 8 9 8 7 10 11 11 11 11 12 13 16 16 13 16 19 19 20 21 22 23 25 27 24 22 22 21 19 19 19 16 13 13 12 10 10 10 9 9 10 10 10 9 9 9 10 10 11 10 10 10 10 12 11 12 12 12 13 14 14 13 12 12 12 13 13 13 14 13 13 14 14 14 14 15 15 16 17 17 18 18 18 19 20
4 3 5 2 2 2 2 4 5 3 3 4 8 10 9 7 7 8 8 8 9 10 11 13 17 15 13 18 18 18 22 23 24 25 26 25 21 19 19 18 18 17 16 15 13 12 11 10 9 9 9 9 10 10 10 9 8 9 9 10 11 11 11 11 10 12 12 12 13 13 13 12 14 13 11 12 13 13 13 13 14 14 14 14 14 14 15 16 16 16 17 17 17 18 18 19 20
3 2 4 2 2 2 4 3 4 5 4 7 9 10 9 8 6 5 6 9 9 9 11 14 17 14 16 21 19 20 23 24 26 26 24 22 18 17 17 15 16 17 15 14 12 11 11 10 10 10 10 10 11 10 10 10 9 9 10 10 10 10 10 11 10 11 13 13 14 14 14 12 13 13 12 13 13 13 14 14 14 14 15 14 14 14 15 16 17 16 17 17 17 17 18 18 18
1 2 1 1 2 3 5 3 3 2 7 8 9 9 8 7 5 5 7 9 9 10 14 16 18 17 18 19 19 20 23 24 25 24 22 20 16 16 17 13 14 14 14 13 11 11 11 11 10 9 10 10 11 10 10 10 10 10 10 10 11 11 11 11 12 12 14 14 15 15 15 14 14 14 14 14 13 14 14 14 14 14 15 14 14 14 15 16 16 16 16 16 16 16 16 16 16
3 2 1 1 2 3 4 3 4 3 6 7 8 9 7 7 4 8 8 8 9 12 16 16 16 19 19 17 18 20 22 23 23 23 21 19 15 14 15 13 13 12 12 12 11 11 11 10 10 8 8 9 10 9 9 9 9 10 10 10 12 12 13 13 14 15 15 15 15 16 16 16 15 14 15 15 14 14 14 14 14 14 14 15 15 15 15 15 15 15 16 16 16 15 15 15 14
4 2 1 1 1 1 2 1 2 5 5 5 6 7 6 6 5 8 8 8 10 11 13 13 14 17 15 15 19 21 22 21 21 22 20 18 17 14 12 13 14 13 13 12 10 10 10 10 9 8 8 8 10 9 8 10 9 10 10 11 12 13 14 14 15 16 16 16 17 17 17 16 16 15 15 15 14 14 14 14 14 14 15 15 15 14 14 14 14 14 15 15 15 14 14 13 13
3 4 3 0 1 1 1 1 1 3 3 4 3 5 5 6 6 6 6 8 9 8 11 13 16 16 14 15 19 21 21 20 20 20 19 18 18 14 11 13 15 14 15 12 11 10 8 9 9 7 7 8 9 9 8 9 10 10 10 11 12 13 15 16 16 17 16 16 19 19 17 15 16 16 16 16 15 14 14 15 14 14 15 15 14 14 14 14 13 13 14 14 14 14 13 13 12
3 5 3 1 1 1 1 0 0 2 2 4 5 4 4 6 6 6 7 8 7 8 11 13 17 17 15 16 17 20 20 20 19 19 18 18 17 12 10 13 13 13 13 12 11 10 9 8 8 8 8 7 7 7 7 8 9 10 10 11 12 13 15 16 16 16 17 17 19 20 18 16 16 17 17 17 16 14 14 15 14 14 15 15 14 14 13 12 12 12 12 13 13 13 13 13 13
4 9 4 1 1 1 0 0 2 2 2 3 6 4 4 5 4 7 6 6 8 10 12 13 14 12 13 15 15 19 21 20 20 18 18 17 17 14 11 11 11 11 10 10 10 9 9 8 7 8 8 7 7 7 7 7 8 9 10 11 12 13 15 17 16 17 18 17 19 19 18 17 16 17 17 17 17 15 15 15 14 14 14 15 15 13 12 13 13 13 14 14 14 14 14 14 14
6 10 3 1 1 1 0 1 2 2 2 4 5 4 3 5 3 6 2 3 10 9 10 10 7 9 15 17 19 23 22 21 20 19 19 18 17 16 12 9 10 11 9 9 9 8 8 8 7 7 7 8 7 7 8 8 8 9 10 12 13 15 16 17 17 17 18 18 20 20 18 18 17 17 17 17 16 16 15 15 14 13 14 15 15 14 14 15 16 16 17 16 16 16 17 17 17
8 7 2 2 1 1 1 1 2 1 4 6 3 3 0 4 3 4 3 3 9 8 9 8 6 11 17 21 23 25 23 21 21 20 19 18 16 16 13 8 8 10 10 9 8 8 7 7 7 6 7 8 8 8 8 9 9 9 11 13 12 14 16 18 18 18 18 19 21 20 19 18 17 16 16 16 16 16 15 15 14 13 14 16 15 15 16 17 18 19 19 19 19 20 20 19 18
8 6 1 1 1 2 1 2 2 1 2 5 5 2 2 3 4 4 3 4 7 8 9 7 11 17 21 24 25 24 23 21 20 20 19 17 16 15 14 10 7 7 9 9 8 8 7 7 7 7 8 9 9 8 9 10 10 10 10 13 13 15 16 18 20 20 20 19 20 21 20 18 16 15 15 15 15 15 15 14 14 14 15 16 15 15 17 18 18 19 18 19 19 20 20 20 17
5 3 2 1 1 3 3 3 3 3 3 5 6 4 3 1 2 2 2 5 8 9 10 12 19 23 24 25 24 23 22 21 20 19 17 17 16 14 13 12 9 8 8 8 8 8 6 7 8 8 8 9 10 9 9 10 11 11 11 14 15 16 17 18 21 21 21 20 21 21 20 19 17 16 15 14 15 15 14 14 14 14 15 15 15 15 16 17 17 17 16 15 15 15 16 16 14
2 2 1 2 4 4 5 4 3 4 4 7 7 5 3 2 2 1 2 7 9 9 11 15 20 22 25 24 23 22 21 20 19 17 15 17 15 12 12 11 11 10 8 7 8 9 7 7 8 8 8 9 10 9 9 10 11 11 12 14 15 17 17 18 21 21 21 21 22 21 20 19 18 17 15 15 15 15 15 14 14 15 16 15 14 16 16 16 16 15 15 14 13 13 13 13 12
2 3 2 5 7 6 6 5 4 4 5 6 7 7 5 4 3 3 4 7 7 10 11 15 20 22 24 23 22 21 20 19 17 15 14 16 14 12 12 11 10 9 10 9 8 8 8 8 9 9 9 9 10 9 10 10 11 13 13 14 16 19 19 19 21 21 21 21 22 21 20 18 18 17 16 15 15 15 16 15 14 15 15 15 15 16 15 14 14 13 13 12 13 13 12 9 7
4 2 7 10 10 5 5 6 5 4 5 6 7 6 6 6 5 6 7 6 5 11 13 15 20 22 23 23 21 20 20 18 17 15 14 14 14 13 13 12 12 10 10 10 8 7 8 10 9 9 8 8 9 9 10 10 10 12 14 16 17 20 21 21 22 21 21 21 21 21 20 19 18 17 16 15 15 15 15 13 13 15 14 13 12 13 12 11 12 12 10 10 12 12 7 4 4
3 1 9 12 13 8 5 5 6 6 5 5 7 6 7 8 6 8 9 5 2 8 15 17 20 21 22 21 20 19 19 17 16 15 13 12 12 13 12 13 14 10 9 11 9 7 9 10 9 9 8 7 8 9 10 11 10 11 15 17 18 21 22 23 23 22 21 21 21 20 19 19 18 17 16 14 14 13 12 10 11 12 12 12 10 11 10 9 9 7 7 8 9 8 6 8 9
5 3 6 8 9 10 11 9 9 9 7 6 4 4 8 10 7 7 9 8 7 8 17 19 21 22 21 20 19 18 18 17 15 14 13 12 11 12 11 13 14 10 10 12 9 7 8 9 7 7 8 8 8 8 9 11 12 13 15 18 19 21 21 23 23 21 22 22 21 20 19 19 18 16 15 13 12 11 10 8 9 9 10 11 10 10 8 8 8 7 8 9 8 6 7 10 10
8 5 4 4 5 7 11 10 10 8 7 7 5 6 11 12 10 8 10 10 8 14 20 20 21 22 20 19 18 18 17 16 15 14 12 11 11 11 11 12 13 12 12 14 12 8 7 8 7 7 8 9 9 9 9 10 12 13 14 18 21 21 21 22 22 21 22 21 20 19 18 17 17 15 13 12 12 11 10 8 7 8 10 10 9 9 9 8 8 7 7 8 7 7 7 7 8
3 6 2 3 4 5 3 3 4 4 8 10 7 9 13 13 10 9 13 12 9 19 21 21 22 21 20 19 18 17 16 16 15 14 13 12 12 11 11 11 12 13 13 14 15 11 8 10 10 9 9 9 10 11 11 10 12 14 15 18 21 21 22 22 22 22 22 21 20 18 17 16 15 15 13 11 11 12 11 10 9 9 10 10 10 10 8 7 7 8 8 8 8 8 9 9 9
2 4 2 2 3 5 4 4 1 1 9 13 10 8 12 16 11 8 15 12 11 20 20 21 21 20 20 18 18 16 16 16 14 14 14 13 12 11 11 11 11 14 15 14 14 12 10 11 10 9 9 10 11 12 12 12 13 15 17 18 18 20 23 24 23 23 23 21 18 16 16 15 15 15 13 12 14 13 11 11 12 12 10 10 10 10 6 6 7 8 9 11 10 9 11 10 8
4 5 4 4 4 5 7 6 4 4 5 9 12 5 7 12 8 8 17 13 13 19 20 22 20 19 20 18 18 15 15 15 13 13 14 13 12 11 11 12 12 14 15 15 14 12 10 9 8 9 10 11 12 13 13 14 16 17 18 17 17 19 22 24 24 24 25 21 18 16 15 16 16 15 13 14 14 13 12 11 11 13 12 9 9 8 6 7 9 8 9 11 13 12 11 10 8
8 8 7 3 5 4 6 5 4 3 1 1 5 3 3 5 6 9 14 10 13 20 19 21 19 18 19 18 17 15 15 15 14 13 13 13 13 12 12 12 13 14 15 15 15 15 13 11 10 11 12 13 14 14 14 15 16 16 16 17 18 18 17 21 23 23 24 23 21 18 15 16 18 15 14 14 13 14 14 12 11 12 10 8 10 10 7 9 10 11 12 13 13 11 8 8 8
9 9 8 2 4 2 4 2 3 4 4 3 2 2 2 6 8 10 8 3 7 16 20 20 19 18 18 18 17 15 15 15 14 13 13 14 14 13 13 13 14 15 15 15 16 15 13 12 12 14 13 13 14 14 14 14 13 14 16 18 18 17 15 16 17 19 22 23 22 19 16 16 17 17 17 14 13 14 13 12 12 11 9 10 11 11 8 8 7 10 13 13 11 9 9 10 9
8 8 6 3 4 1 5 3 5 4 3 2 3 2 3 4 5 10 9 3 4 11 21 20 18 19 18 18 17 15 15 15 14 14 13 13 14 14 13 14 14 15 15 16 17 14 11 11 13 15 14 13 14 13 13 12 11 12 16 17 15 15 14 13 13 15 18 17 17 17 15 15 17 19 18 14 12 12 12 12 11 11 11 11 9 9 8 7 6 9 11 12 11 10 10 10 8
7 7 5 3 3 3 6 4 3 2 1 4 3 3 5 2 5 11 10 5 7 11 21 21 19 20 18 18 17 17 16 16 16 14 14 13 14 14 14 15 15 15 16 16 17 15 13 12 12 15 15 13 14 13 13 12 11 12 15 15 14 14 14 12 12 14 14 14 15 16 16 17 18 18 16 15 13 10 12 11 11 13 13 10 9 8 8 7 6 8 10 12 11 9 9 8 7
6 5 3 4 2 4 4 4 1 3 2 1 1 4 5 3 8 10 9 7 10 13 20 21 20 20 18 18 18 18 16 16 17 14 13 13 13 15 15 15 15 16 17 16 17 16 15 14 13 15 15 14 15 14 13 13 13 13 13 12 12 14 14 13 13 14 13 14 16 16 17 17 16 15 15 17 13 9 10 10 13 15 12 10 10 8 7 8 8 7 9 11 9 8 11 11 10
5 2 2 3 4 3 1 4 2 5 4 4 8 6 4 3 6 7 8 9 13 14 23 20 19 20 17 17 16 17 16 14 16 15 14 13 13 14 14 15 16 16 17 16 17 16 16 16 15 15 15 14 15 15 14 13 13 14 13 12 12 14 14 13 14 14 13 13 15 16 15 15 15 14 15 18 15 10 8 9 13 14 12 11 10 7 6 6 7 8 9 9 9 9 10 11 9
3 5 4 0 4 5 2 3 2 4 6 6 8 4 3 4 5 6 9 12 12 12 22 18 18 20 18 18 16 16 17 15 15 16 15 14 15 15 14 15 16 17 17 17 17 17 17 18 16 16 15 14 15 16 15 15 15 14 13 13 13 14 14 14 14 14 13 12 13 15 14 14 14 13 15 18 16 11 10 11 12 13 13 12 9 8 5 3 6 10 10 9 9 8 8 9 7
9 9 3 1 1 2 1 6 4 4 6 5 4 2 5 7 6 6 9 12 11 11 17 17 17 19 18 19 18 17 17 17 17 16 15 15 15 15 15 15 16 17 17 18 17 17 17 18 17 17 16 15 16 16 15 16 17 14 12 13 13 14 13 13 13 13 13 11 12 14 14 13 13 12 13 16 16 12 11 12 13 14 14 10 10 11 6 4 6 10 12 10 9 7 7 9 7
8 7 1 2 4 1 3 6 4 4 5 4 3 1 6 9 7 7 9 10 11 14 17 19 16 17 18 18 19 18 17 17 16 15 16 15 15 15 15 16 16 17 18 18 17 17 17 17 17 18 16 15 16 15 15 16 16 14 13 13 13 13 13 13 12 12 12 11 11 13 12 12 12 12 11 13 16 14 10 11 13 13 10 7 10 12 8 8 11 12 13 12 11 8 6 7 5
1 2 3 2 3 4 5 7 7 6 3 3 4 4 6 7 7 7 7 8 10 15 16 20 20 18 17 17 19 19 17 18 18 16 16 15 16 17 15 15 17 18 19 18 17 17 16 16 17 17 16 15 15 15 14 14 15 14 13 12 13 13 13 13 11 13 13 11 11 12 11 11 10 11 11 10 14 15 12 12 14 12 7 8 11 11 9 10 13 13 12 11 10 7 6 6 5
4 3 3 3 2 6 7 7 7 5 2 2 5 5 4 5 5 4 4 7 8 10 10 12 19 20 18 18 19 19 19 21 21 20 18 16 17 18 16 16 17 18 19 18 17 17 17 16 17 17 16 16 15 16 15 13 14 13 12 12 12 12 13 12 10 12 12 10 12 11 10 11 10 9 11 10 11 14 12 12 14 12 8 9 11 11 10 10 12 12 10 11 11 7 6 7 6
6 5 4 2 6 5 3 6 7 4 2 3 2 2 2 5 5 4 5 7 7 12 20 20 14 20 19 18 20 20 21 21 21 21 18 18 19 19 18 17 17 18 19 19 18 18 17 17 17 17 17 16 16 17 16 14 14 13 13 12 12 12 13 12 10 11 11 9 11 11 9 11 10 9 10 10 10 12 13 11 11 11 10 10 11 11 10 9 10 9 9 11 11 9 8 7 5
8 9 7 4 8 7 3 7 9 5 3 3 5 2 2 5 5 4 4 4 5 9 21 24 12 19 18 18 20 19 22 22 21 22 19 19 21 20 19 19 17 18 19 19 19 18 17 17 17 17 17 17 16 17 17 16 15 15 15 14 14 13 12 13 13 12 11 10 9 9 9 10 10 9 10 10 7 11 14 11 8 9 10 10 10 11 8 8 9 7 7 7 6 9 11 8 6
9 8 10 9 5 7 8 9 10 4 2 5 8 1 2 6 7 5 3 2 4 9 16 18 11 14 15 16 20 19 21 22 21 23 21 19 20 19 20 20 18 18 19 18 19 18 17 18 18 18 18 17 16 17 18 18 19 19 17 16 16 15 12 13 13 11 11 10 9 8 8 10 10 9 11 10 7 10 13 12 10 9 10 12 11 11 7 6 8 7 6 6 6 11 11 8 8
6 4 7 7 8 9 7 8 7 2 2 5 8 5 2 5 9 8 7 6 6 8 12 13 10 11 14 15 20 21 21 21 21 24 23 20 20 20 21 21 19 18 18 19 18 18 18 19 18 18 19 17 17 18 17 18 20 20 18 15 15 14 13 13 12 11 10 11 12 9 8 9 9 8 10 10 9 10 10 10 11 10 12 12 10 10 7 4 6 8 8 7 7 10 7 7 11
3 6 6 4 3 5 4 4 4 3 3 4 7 7 3 4 8 12 13 12 12 11 13 13 11 13 17 18 19 22 23 22 22 24 24 22 22 22 21 21 19 18 18 19 19 18 19 20 19 19 19 18 18 19 17 17 19 20 18 14 12 12 12 13 13 12 11 10 11 10 8 9 10 9 9 9 10 10 10 10 10 11 11 11 9 8 7 6 6 7 8 7 7 8 6 5 10
5 7 5 3 4 5 3 3 4 4 4 3 6 7 5 3 6 12 16 14 14 15 15 13 14 17 20 21 20 21 24 24 23 24 24 23 24 23 21 20 19 18 19 19 19 19 19 21 20 20 20 19 19 20 19 18 19 19 17 14 13 12 11 13 13 14 14 11 11 12 11 11 12 12 10 9 10 10 10 10 10 10 10 10 10 8 7 7 7 5 5 7 5 6 6 4 6
4 5 4 2 2 5 5 6 4 2 4 5 7 10 5 2 4 9 12 13 13 14 13 14 18 21 22 23 21 21 24 25 24 25 25 24 25 23 21 21 21 20 20 19 19 20 20 21 22 20 20 19 19 20 19 19 20 20 18 15 14 14 12 13 13 13 16 14 11 13 13 11 11 11 10 10 10 10 10 10 9 9 9 10 10 10 8 7 6 5 6 8 6 6 8 6 5
6 2 4 5 6 7 5 3 3 3 5 7 8 12 9 4 4 8 9 11 14 12 12 14 18 23 23 23 22 22 24 25 25 26 27 26 25 23 23 23 22 20 20 20 20 20 20 21 22 21 21 19 19 20 20 19 20 20 19 16 15 14 13 15 14 13 15 14 13 12 12 12 11 10 9 9 10 9 9 10 9 8 8 9 9 9 8 7 6 6 7 8 9 10 10 8 5
8 4 4 6 5 5 3 3 3 5 6 4 0 5 8 6 3 6 8 11 14 13 13 14 17 22 24 24 24 23 24 25 25 26 27 28 26 24 24 24 23 22 21 22 21 21 21 21 22 22 21 20 19 19 20 19 19 20 19 16 16 15 13 14 15 13 13 14 13 12 12 12 11 10 10 10 10 9 9 11 12 10 9 10 9 7 7 7 7 7 6 7 8 9 9 10 9
6 4 3 6 5 3 4 5 4 6 6 1 9 8 2 6 3 6 9 10 11 13 16 18 20 22 24 25 24 23 24 25 26 26 26 28 27 26 26 25 24 24 23 23 22 21 22 22 23 23 22 21 19 20 20 19 19 20 20 18 17 16 14 13 14 13 12 12 12 12 12 13 12 11 11 11 11 10 10 12 14 13 11 11 10 9 8 8 8 9 8 7 7 7 8 9 10
7 6 5 7 6 4 6 5 4 7 2 6 7 3 3 5 3 5 9 11 12 15 19 24 26 25 24 24 24 24 24 24 26 27 27 28 28 27 27 24 23 25 25 24 24 23 22 23 24 23 23 22 20 20 21 20 19 19 19 19 18 17 16 15 15 13 12 12 12 11 11 13 12 11 11 10 11 12 11 12 13 13 12 12 11 11 10 9 10 10 9 8 8 7 7 8 8
8 8 7 8 7 6 7 4 4 5 0 5 2 2 2 2 3 3 3 7 12 14 18 24 26 26 26 24 25 26 25 25 25 26 27 29 29 27 27 25 24 26 26 25 26 24 23 23 24 24 24 23 21 21 21 21 20 19 20 20 19 18 18 16 16 14 12 12 12 10 11 12 12 12 11 10 12 13 11 10 11 11 11 11 12 12 11 11 11 11 9 8 8 7 5 7 8
6 8 8 8 8 7 6 6 6 6 3 1 2 2 0 1 5 2 5 3 8 6 10 22 25 26 27 26 25 24 25 26 26 26 27 30 30 27 26 26 26 26 25 25 26 25 24 24 25 25 24 23 23 22 22 22 21 20 21 20 19 19 18 17 16 16 15 14 13 12 12 11 10 10 11 12 13 12 11 11 10 10 10 10 11 10 9 10 11 10 9 9 9 7 5 7 7
5 5 7 7 8 9 6 6 7 8 7 3 4 3 1 3 5 1 3 4 3 6 5 17 23 23 25 25 25 24 25 26 27 27 27 29 30 28 27 27 27 26 25 26 27 26 25 25 26 26 25 24 24 23 23 22 22 21 21 21 20 19 19 18 17 16 15 14 14 14 13 12 11 10 10 12 14 13 13 12 10 9 10 10 10 10 9 9 9 8 8 7 8 8 8 9 7
7 5 5 4 7 9 6 5 6 7 7 4 4 4 2 4 3 3 4 4 1 4 5 9 15 20 24 24 25 26 27 26 27 27 26 27 29 28 28 28 27 28 28 26 26 26 25 25 26 26 26 26 25 24 23 23 23 22 21 22 21 19 19 17 15 15 14 13 14 14 13 13 13 12 10 10 12 13 13 13 11 11 11 10 10 9 9 9 8 7 7 7 8 9 10 9 8
12 9 8 6 6 6 5 5 6 7 6 5 5 5 1 3 1 3 4 6 4 4 7 6 10 15 19 23 25 27 27 25 27 28 26 27 28 28 28 28 27 27 28 26 26 26 25 25 25 25 26 26 25 24 24 24 24 23 21 22 22 20 18 17 15 15 14 14 14 14 13 14 13 13 12 11 11 12 13 14 14 14 13 11 10 10 10 9 8 8 7 7 6 7 8 8 8
12 12 10 8 6 4 3 4 5 6 5 5 5 4 2 3 3 1 2 3 3 6 8 8 9 11 16 21 25 27 27 24 25 27 26 26 28 27 28 29 27 25 26 27 28 26 25 25 25 25 24 24 24 23 24 24 24 22 21 21 22 21 19 18 17 16 15 15 15 14 14 14 13 13 14 14 13 12 13 14 13 13 13 11 10 10 10 10 9 8 8 7 6 8 9 8 8
6 7 8 7 5 3 4 6 6 6 5 5 6 3 3 2 2 3 2 1 1 2 4 9 9 6 11 17 22 26 25 21 21 24 26 26 26 27 28 28 27 26 26 27 28 27 25 25 25 25 24 25 24 23 23 23 22 21 20 20 21 21 20 19 17 16 16 16 15 15 14 14 13 13 14 14 14 13 14 13 12 12 12 11 10 9 10 11 9 8 9 9 10 11 11 9 9
6 6 7 8 7 5 6 6 6 6 6 5 6 3 3 3 1 2 2 3 3 1 2 8 12 6 5 10 16 24 25 21 19 21 22 25 27 27 26 27 27 28 28 26 26 27 26 25 24 24 24 25 24 24 23 23 22 21 20 19 19 20 20 19 17 16 16 16 15 16 15 15 14 14 14 14 14 14 14 13 12 12 12 11 11 11 12 12 10 9 10 10 10 11 11 10 10
Wind_Direction
64 42 46 18 348 347 322 316 291 185 208 261 85 81 84 83 100 105 106 111 101 94 93 90 74 76 85 80 77 71 61 57 60 85 113 137 144 138 139 144 142 140 135 130 133 133 131 127 125 120 118 117 114 113 110 111 118 124 125 124 123 115 113 118 119 116 114 115 112 109 112 116 118 116 111 112 112 112 111 108 107 104 103 102 103 104 105 106 106 105 104 103 102 101 101 100 99
70 44 31 358 339 342 315 306 298 16 302 262 84 80 102 108 111 90 96 100 91 94 93 90 77 79 89 81 80 75 63 71 83 96 119 135 136 135 141 146 141 138 134 134 136 130 130 129 127 121 120 120 120 120 115 120 130 134 131 125 124 123 124 128 131 125 123 125 118 112 113 116 118 119 117 115 114 112 112 112 109 106 106 106 106 107 107 109 109 106 104 103 103 102 102 101 101
90 1 346 274 296 318 297 289 305 2 317 94 92 112 113 102 91 80 87 90 91 94 88 84 69 66 86 83 78 82 80 85 94 106 124 134 136 140 139 138 137 136 135 136 136 130 132 130 126 124 122 122 123 122 123 132 138 139 137 132 131 135 136 133 140 134 128 132 125 119 118 119 120 119 117 116 115 113 112 111 107 106 108 106 107 106 106 109 108 106 104 104 103 104 105 105 104
123 247 311 303 297 315 297 275 281 330 267 85 91 125 109 94 95 98 98 93 95 96 89 87 71 56 69 84 83 87 93 96 102 111 125 131 135 139 136 138 140 136 136 136 135 132 135 132 129 129 125 124 124 126 132 142 144 141 140 138 137 142 141 138 144 137 133 139 136 129 123 123 123 121 120 119 117 114 111 109 107 108 110 109 109 108 108 110 109 107 106 105 106 107 109 108 106
96 73 323 333 333 308 285 273 273 315 225 164 107 113 103 102 112 116 103 91 86 92 97 96 86 69 63 73 83 95 103 103 108 112 121 126 129 136 142 146 144 138 136 135 137 135 136 134 133 135 130 129 127 131 136 139 143 142 144 143 140 146 148 144 145 136 136 145 147 137 128 126 124 124 125 122 119 116 111 109 109 110 114 115 112 111 112 112 111 110 108 108 109 110 110 110 109
63 10 339 326 330 302 284 289 285 277 231 159 118 109 104 109 117 110 99 90 84 86 92 92 94 90 74 71 79 95 110 112 114 115 120 124 128 138 142 141 141 139 133 133 140 138 137 135 135 136 135 136 131 133 136 135 136 142 150 151 149 150 149 148 143 135 141 151 151 140 132 130 127 129 128 123 120 115 110 109 112 114 118 118 114 113 114 113 113 112 109 109 110 110 111 112 113
9 349 357 340 338 349 312 305 282 225 111 102 107 109 107 110 115 109 104 99 94 88 89 95 101 99 86 84 83 89 106 114 117 119 122 124 131 141 138 135 137 137 133 136 143 139 139 138 135 136 138 140 137 135 138 140 142 149 155 158 155 150 150 153 147 140 147 152 150 141 134 133 129 129 129 125 120 113 110 111 113 116 117 116 116 117 115 113 113 112 110 111 111 111 111 111 114
248 335 12 344 333 34 296 300 292 289 91 90 94 96 97 100 100 104 108 97 91 93 95 99 97 92 90 92 89 91 102 111 116 121 123 124 135 140 135 136 131 131 138 137 139 141 142 140 138 140 142 140 140 142 145 150 156 158 156 158 153 149 154 154 150 145 143 144 148 141 133 133 127 126 128 125 119 114 112 112 114 116 116 116 118 120 117 115 114 114 113 113 113 112 111 112 114
232 328 10 2 339 347 297 336 316 294 98 91 84 86 87 85 84 100 109 96 94 94 92 96 96 96 99 95 95 100 106 113 117 121 123 125 139 137 131 137 129 129 135 133 136 143 144 143 144 147 146 140 141 149 157 162 164 159 152 156 150 146 154 151 150 149 142 140 144 139 135 135 127 128 129 125 120 115 116 116 117 119 119 120 121 120 119 118 117 117 116 115 115 113 113 116 118
81 341 342 51 353 342 319 7 326 280 97 83 81 85 83 81 82 96 97 98 101 94 93 98 100 103 104 99 102 108 114 120 121 121 122 125 136 129 123 127 123 125 131 133 137 140 144 144 145 148 146 142 146 155 163 164 160 156 152 157 153 149 154 151 151 150 144 142 142 139 139 139 132 132 131 127 123 119 120 122 122 123 124 125 123 120 118 117 117 119 119 116 114 114 116 118 120
127 13 350 80 358 357 337 4 327 336 63 65 78 76 80 88 86 96 99 101 100 105 111 110 103 103 103 101 106 115 121 124 123 122 122 123 124 120 121 121 117 120 125 130 134 136 140 139 141 146 149 147 148 155 163 160 156 158 156 153 153 153 153 152 154 149 145 145 143 141 142 140 135 135 133 129 126 122 125 125 125 124 126 126 123 120 117 115 114 116 117 116 115 115 115 117 120
162 100 82 33 14 21 333 20 315 313 3 29 67 63 71 91 97 104 114 115 109 114 116 112 110 109 107 106 115 124 126 124 123 124 124 121 121 123 123 120 116 115 118 124 127 129 131 132 138 146 153 151 152 161 162 159 164 168 157 150 153 153 152 153 155 151 145 142 140 143 142 139 139 140 136 131 128 127 126 125 124 126 127 126 123 119 116 114 112 111 111 113 114 115 116 117 119
172 125 120 66 347 26 6 40 270 294 343 347 23 60 66 85 97 100 104 106 106 113 109 116 124 117 109 113 124 131 128 127 127 126 126 123 125 132 128 119 119 117 119 124 122 124 131 133 140 151 159 162 166 171 165 162 169 170 157 151 153 151 153 157 158 152 143 139 140 142 140 140 145 146 140 134 131 128 124 124 124 126 127 125 122 118 115 113 109 106 105 108 109 111 113 115 117
202 123 101 68 340 345 107 119 263 284 336 314 317 20 63 92 99 97 102 99 98 112 114 123 123 111 113 123 133 135 131 132 131 128 128 125 128 136 130 122 121 117 118 123 122 128 134 135 151 162 165 172 172 169 169 166 166 166 157 151 150 153 158 160 160 150 144 145 142 139 140 146 148 144 139 134 130 128 125 125 125 125 128 127 122 117 114 112 108 106 105 105 105 105 106 109 111
193 127 93 36 301 297 271 359 153 216 300 287 302 336 78 108 119 113 109 100 104 117 118 124 123 120 135 138 139 138 136 137 134 130 130 128 129 129 124 120 117 114 116 121 122 125 130 137 155 162 161 166 164 161 164 164 163 162 155 150 148 153 159 161 159 148 146 147 142 140 143 147 146 141 137 133 130 127 125 124 125 126 128 128 121 116 113 109 107 105 102 100 99 97 98 99 101
198 151 131 99 237 247 342 322 164 178 201 218 265 286 115 101 97 115 131 93 110 128 128 128 128 137 146 139 136 138 138 137 135 133 132 130 128 127 125 121 114 114 116 121 124 122 129 140 153 164 161 161 164 164 161 161 166 163 152 148 147 150 155 159 156 146 146 146 143 144 146 147 146 142 139 135 129 125 124 124 125 126 128 126 120 115 109 108 105 101 98 96 95 93 91 91 96
240 218 222 101 207 153 87 260 212 149 153 183 210 285 55 100 95 144 206 110 120 146 140 139 137 133 137 133 134 137 137 138 137 136 135 133 131 131 128 122 116 116 117 119 121 125 137 147 159 174 164 157 159 164 164 158 161 165 152 144 148 152 153 156 152 148 149 149 148 148 149 147 143 140 137 131 127 126 126 126 125 126 128 125 119 114 110 107 102 98 97 96 96 92 89 88 92
252 259 330 63 246 128 129 240 205 156 152 176 171 233 262 153 147 186 217 101 124 140 130 136 129 123 124 129 135 137 139 141 141 140 141 140 139 139 136 130 123 122 126 123 121 133 149 154 160 169 164 157 154 162 165 157 156 159 147 141 152 155 154 154 150 150 151 151 151 149 147 144 141 140 134 129 128 126 126 126 125 126 128 124 119 115 110 103 97 94 94 96 97 93 89 83 80
260 281 76 127 212 142 191 223 180 174 193 185 173 193 236 186 136 218 227 139 145 131 120 117 116 120 124 132 139 139 142 145 145 145 147 147 144 146 148 144 139 144 143 131 126 133 147 151 153 159 158 150 148 159 161 158 156 150 140 139 150 152 152 151 148 150 150 152 153 149 147 144 144 142 135 131 127 124 124 124 124 126 127 122 116 113 108 101 93 88 86 88 89 88 87 82 71
312 289 103 162 169 164 202 222 198 171 177 185 176 179 206 199 155 252 202 166 159 129 125 125 124 130 133 138 142 143 148 148 148 149 150 149 145 147 153 151 146 146 139 128 129 135 153 157 150 157 155 140 142 154 153 155 154 149 144 142 149 149 148 150 150 149 149 152 152 149 148 145 142 139 136 132 126 124 123 122 124 127 128 123 116 112 104 96 91 86 82 78 74 72 71 70 60
220 258 124 153 168 171 197 215 214 168 171 188 177 177 189 188 194 237 187 171 160 134 141 142 140 140 139 145 147 148 151 149 151 151 149 148 144 143 148 149 139 131 125 124 133 143 156 149 145 158 153 137 139 148 148 150 150 149 150 146 148 149 149 151 150 149 148 148 149 148 146 143 139 136 134 131 127 123 120 121 123 124 127 126 117 106 96 93 90 81 75 70 69 65 57 55 47
255 270 98 134 168 178 187 206 232 192 184 191 183 184 183 184 197 225 207 183 156 144 155 151 144 146 146 148 151 151 152 151 153 150 150 150 144 138 140 139 130 132 132 127 128 133 135 130 137 150 147 137 137 143 142 141 143 145 150 147 148 151 150 149 149 149 147 145 146 147 146 144 140 137 135 131 127 122 121 122 123 126 127 124 116 99 84 79 76 67 63 62 70 66 60 106 104
282 342 101 136 167 174 175 198 228 204 198 195 186 186 181 191 198 216 225 243 250 153 155 154 147 149 150 150 154 154 154 152 152 152 152 151 144 138 138 137 135 143 143 131 129 132 130 129 134 139 140 135 131 139 139 139 143 145 148 145 148 155 150 146 147 147 147 146 146 148 149 146 142 139 137 134 130 122 121 126 130 131 124 116 111 97 78 73 74 67 65 67 79 79 82 113 96
259 238 133 147 156 160 170 186 214 202 203 208 183 184 192 196 195 205 217 243 259 173 155 155 150 152 153 154 157 155 155 153 152 153 151 150 146 138 138 138 137 144 145 137 140 145 135 130 131 132 136 132 129 135 139 145 148 148 148 142 144 151 148 145 146 147 147 146 147 150 149 146 144 140 138 137 128 118 121 134 134 127 122 114 104 101 96 93 88 76 80 82 95 113 88 83 81
258 258 129 125 104 136 168 185 204 185 181 210 207 205 208 199 189 197 205 221 217 161 155 156 153 155 156 155 157 155 156 154 152 152 149 150 145 139 137 136 135 139 144 142 144 149 134 128 131 130 131 129 127 127 134 141 142 146 145 139 139 142 145 144 143 145 145 146 148 149 149 148 144 139 136 130 123 126 135 140 133 123 123 117 107 110 106 96 93 91 94 90 101 122 105 91 91
263 291 22 92 98 114 148 177 178 149 168 199 208 205 212 202 192 200 205 212 175 151 154 156 156 157 156 156 156 157 158 156 154 152 151 150 144 139 137 135 135 138 143 142 142 149 149 141 134 130 127 124 125 125 126 125 128 138 135 134 137 136 142 146 142 142 146 149 149 148 148 146 143 137 133 135 137 143 145 145 142 124 114 118 121 111 102 108 124 133 123 111 120 119 109 113 105
45 299 292 103 84 82 35 7 12 200 174 184 201 214 221 205 195 195 199 204 163 153 155 157 161 159 157 156 154 161 162 153 152 153 150 148 146 144 140 137 137 136 139 140 139 143 148 141 132 131 131 125 126 123 121 119 116 125 128 129 132 131 137 145 146 145 148 150 150 152 148 148 150 141 142 153 148 142 144 146 139 125 115 115 111 96 102 136 142 143 126 122 132 110 92 99 110
273 267 236 145 115 77 36 7 334 280 183 188 202 224 263 218 199 178 184 194 168 158 158 160 165 162 158 155 154 163 159 149 156 157 150 148 148 147 144 142 138 137 139 138 137 134 129 131 137 142 137 127 126 124 119 117 115 121 127 126 128 129 133 142 146 146 148 150 153 153 151 155 148 136 146 151 141 142 143 137 131 125 119 112 107 101 99 106 110 116 113 119 118 102 89 83 96
281 273 251 150 138 103 44 22 350 319 111 159 182 169 292 192 182 190 185 197 175 161 160 163 167 163 157 155 156 163 158 155 162 160 154 154 155 151 146 144 140 140 139 135 138 142 145 151 151 143 134 121 121 125 118 114 116 120 125 126 128 127 130 141 142 142 148 153 153 153 162 158 138 138 155 148 144 147 136 128 129 121 120 133 134 123 100 87 94 95 102 115 106 94 96 89 89
282 278 253 189 173 132 53 59 75 103 133 48 47 170 199 135 160 194 191 229 188 166 164 167 168 161 159 159 157 162 162 159 161 160 158 155 156 153 146 142 141 139 138 138 142 151 160 157 143 134 127 120 121 123 118 114 117 120 125 127 126 123 128 139 138 137 145 152 154 154 159 149 139 151 152 141 143 138 127 128 127 119 125 136 123 111 103 92 89 86 99 109 92 81 96 107 104
259 266 250 235 253 89 62 86 113 119 170 273 310 116 86 82 137 169 183 251 277 186 171 170 170 164 164 160 155 165 168 161 163 165 159 153 153 153 148 143 142 140 139 142 141 145 153 145 139 136 130 128 129 126 123 121 122 128 130 128 126 129 129 131 134 138 143 149 152 148 145 143 146 147 137 131 133 126 127 128 128 134 129 120 107 102 100 92 79 76 95 101 85 77 83 96 101
239 245 242 241 265 70 53 41 100 81 287 276 297 103 100 86 156 174 204 250 284 215 177 173 173 165 165 160 158 170 171 166 168 165 156 154 150 150 152 146 143 142 142 142 138 140 147 143 142 139 136 138 135 132 134 135 136 136 132 130 133 133 127 125 131 137 140 144 147 144 143 146 147 141 133 128 122 123 130 128 138 134 118 113 112 105 98 104 94 78 104 109 92 95 99 102 97
229 237 292 310 296 94 53 328 15 53 355 267 81 126 132 167 188 209 240 253 263 220 178 178 173 163 166 165 165 168 170 169 163 158 153 154 151 149 151 147 144 144 143 142 139 142 142 140 141 138 141 144 138 139 141 139 141 137 134 137 134 125 126 133 134 135 140 145 147 145 144 146 144 142 136 125 118 129 131 140 149 127 119 130 116 102 102 110 102 87 117 119 108 117 114 111 102
238 187 64 334 330 41 152 259 322 29 17 105 113 125 141 156 197 234 246 247 260 211 177 181 170 162 170 169 169 167 168 166 157 158 157 153 153 151 150 146 144 143 144 144 142 143 140 140 145 142 143 144 142 145 146 147 145 140 141 144 135 128 134 143 141 140 144 148 147 145 145 146 145 144 137 126 123 132 132 147 148 129 129 129 106 103 107 108 113 111 125 120 120 128 116 116 121
8 60 68 129 352 351 205 166 100 61 46 92 115 118 137 148 194 231 240 250 268 211 180 180 170 167 173 171 170 169 165 163 161 161 157 154 154 151 149 147 145 145 145 145 143 143 142 147 150 145 145 148 149 148 149 152 143 138 144 144 138 136 141 145 142 141 144 148 147 144 145 145 144 143 139 132 125 134 149 152 151 143 135 124 113 117 108 128 130 122 133 122 109 118 117 119 129
77 89 17 312 120 339 96 89 87 100 67 73 93 115 164 169 199 218 235 248 268 235 187 176 178 175 176 173 169 171 167 162 163 160 155 158 156 152 151 149 148 147 147 146 146 145 146 154 152 145 149 153 152 152 153 150 139 139 150 147 140 140 144 143 140 143 147 152 150 144 144 144 144 142 142 140 129 132 153 157 158 145 127 124 131 127 121 151 135 123 137 131 111 107 102 103 108
99 127 262 235 173 139 101 105 142 162 110 105 85 284 200 185 199 212 226 234 258 246 196 176 188 182 179 179 167 170 167 157 162 163 158 157 156 155 153 153 152 149 149 148 149 148 149 155 152 147 154 157 153 153 152 146 141 147 154 148 143 145 147 140 141 147 146 153 152 146 145 142 143 142 144 146 135 134 150 157 154 138 128 147 147 142 141 137 128 120 124 126 124 121 107 106 117
108 235 241 231 162 141 163 148 161 184 148 143 162 217 225 205 204 211 226 229 243 241 201 179 186 183 185 184 167 166 165 158 162 164 160 157 159 159 155 156 156 153 154 153 153 153 151 154 154 152 154 156 155 151 146 144 145 149 152 150 146 149 145 139 149 150 146 157 152 145 149 144 145 145 142 144 141 140 147 154 149 138 151 170 153 152 152 134 130 125 119 121 125 127 132 148 176
291 268 240 260 129 139 162 146 152 175 162 180 187 196 238 263 239 228 250 246 259 276 261 212 185 180 191 186 168 166 166 162 162 164 165 161 160 161 159 161 160 158 157 157 158 155 154 159 158 157 155 155 159 153 149 152 151 147 149 150 147 150 144 141 160 153 147 163 156 150 155 148 148 147 143 145 144 142 146 157 154 150 165 167 152 150 145 129 129 133 130 133 137 139 155 165 176
265 244 243 210 150 166 175 151 151 124 101 176 174 162 230 271 272 280 275 274 317 315 293 277 206 182 195 185 171 170 166 164 162 164 168 164 161 163 164 165 163 162 161 161 163 158 161 167 162 161 159 158 162 157 152 154 155 152 150 149 149 154 148 144 152 142 144 166 160 156 157 152 150 150 148 144 147 147 142 147 158 161 161 159 150 138 130 122 121 128 134 143 152 155 164 172 169
259 238 239 228 185 184 128 131 139 94 25 148 121 54 253 233 228 244 265 278 309 279 274 279 233 187 197 184 174 173 166 166 165 165 168 166 166 167 167 167 167 166 165 165 166 163 167 170 166 165 163 161 165 163 158 158 162 159 152 149 155 161 152 146 145 141 151 166 162 159 161 157 152 152 150 143 155 154 139 140 166 173 157 151 146 130 123 125 116 111 120 131 155 159 157 161 166
268 241 225 232 187 141 121 127 134 122 287 172 154 155 254 217 212 209 210 185 234 254 261 270 242 203 208 187 176 175 168 170 171 167 168 168 167 170 168 168 170 170 170 168 167 168 169 172 170 168 166 165 169 170 167 168 167 163 156 153 161 165 153 150 154 152 156 157 160 164 162 158 155 157 153 147 164 158 143 152 165 163 155 154 148 131 123 133 132 135 132 119 140 160 157 153 166
274 302 251 226 133 133 158 151 140 156 227 172 183 217 222 212 212 196 186 181 192 240 251 249 241 226 226 203 181 176 173 177 176 168 170 173 168 169 171 172 174 173 172 169 168 170 170 173 173 171 168 167 173 176 175 174 171 167 163 158 165 165 155 155 155 156 163 163 165 164 158 156 149 151 155 151 164 161 151 160 161 156 159 157 149 137 134 149 161 162 157 143 149 168 171 156 165
284 4 317 289 132 176 195 159 170 182 160 161 196 227 244 217 204 187 185 186 181 199 222 226 227 227 228 218 191 178 177 179 176 168 171 176 172 171 174 175 175 174 174 171 169 171 173 176 174 173 172 170 175 179 177 176 174 173 169 163 165 163 162 161 152 159 173 164 155 149 152 159 146 152 170 161 164 166 159 163 167 163 158 152 147 153 165 184 186 172 167 171 175 182 183 162 170
290 352 339 347 349 315 315 262 235 189 187 204 194 213 250 230 184 178 182 189 190 196 203 202 208 218 222 218 201 184 181 179 176 173 172 175 177 175 174 176 177 176 174 172 171 171 175 178 175 175 175 174 179 181 179 178 178 177 172 168 170 165 170 168 158 171 172 152 149 154 160 167 160 166 178 167 166 171 167 172 177 169 158 152 157 176 192 195 191 187 178 169 168 188 187 188 195
270 344 316 248 270 287 268 264 277 218 226 251 205 194 224 254 169 172 181 192 200 200 197 192 197 205 211 213 205 190 183 179 178 178 175 176 177 175 176 179 178 176 173 173 174 172 175 178 178 179 177 178 182 181 182 182 182 182 175 171 172 170 174 168 164 180 173 160 168 171 170 172 169 171 173 171 172 172 171 175 177 171 163 160 173 190 193 191 190 191 189 176 175 200 190 182 206
270 256 264 262 240 241 249 282 317 287 254 254 218 191 202 239 178 175 192 202 201 197 193 191 194 199 205 211 208 195 185 181 181 180 178 178 176 176 182 181 176 176 173 173 175 174 177 180 180 181 180 182 184 182 185 186 186 186 180 174 173 175 178 171 173 185 180 176 180 179 176 171 169 171 173 178 176 173 176 171 168 177 174 169 183 195 188 190 197 182 184 190 196 209 193 169 185
301 248 243 289 250 224 252 257 253 266 256 255 99 153 202 238 203 184 212 216 204 195 190 189 193 196 200 207 207 199 190 184 182 181 177 174 174 177 183 182 180 180 176 174 175 175 178 181 183 183 183 186 186 184 187 188 188 189 185 182 178 176 179 180 183 186 185 187 187 187 186 176 173 172 176 185 178 176 180 169 169 182 185 181 189 197 188 191 195 181 181 194 200 210 201 183 186
286 263 240 278 257 215 247 246 233 247 246 72 60 64 222 252 235 201 222 230 215 200 191 190 194 193 196 203 205 202 195 186 183 180 172 172 174 176 181 184 184 182 178 176 175 176 180 183 186 186 185 188 188 186 189 189 190 191 188 187 186 180 178 184 189 187 188 191 190 192 189 183 184 178 182 188 175 178 188 177 178 184 186 189 190 186 189 196 191 182 186 195 198 203 204 204 197
227 240 224 240 253 246 245 238 235 245 247 65 72 93 241 257 232 193 209 218 214 206 194 189 192 193 195 200 202 203 199 188 184 182 176 177 178 177 181 184 184 182 181 178 176 177 181 184 188 188 187 190 188 187 190 191 191 192 191 191 192 189 186 190 194 190 192 192 189 192 189 188 192 189 191 188 175 184 192 184 187 196 196 194 191 187 192 200 192 186 194 202 206 204 202 211 201
210 218 224 235 246 257 265 268 264 261 116 78 110 205 250 281 280 315 294 218 206 206 193 182 185 191 193 197 201 204 199 190 188 186 182 179 177 179 181 181 180 181 181 179 178 178 181 187 190 189 188 190 189 189 191 192 192 192 193 194 195 196 196 198 196 192 194 192 188 194 196 194 196 196 193 184 182 189 190 189 196 204 206 197 191 193 197 200 200 202 209 212 214 213 217 226 210
235 211 214 230 242 250 265 269 274 282 275 182 181 233 327 167 229 279 6 271 230 242 202 177 179 189 189 194 203 206 202 193 189 189 183 177 177 181 182 181 181 181 182 182 180 179 181 189 193 192 191 190 190 191 192 193 193 193 194 196 198 199 200 201 198 195 196 191 190 197 200 197 198 203 197 185 187 193 195 201 203 200 201 197 192 195 199 199 202 208 214 216 212 209 234 249 227
284 239 217 222 243 256 259 251 255 264 269 245 171 207 151 151 217 172 71 238 249 342 266 184 179 187 186 189 198 204 207 198 189 190 185 178 180 183 182 182 184 184 184 184 185 183 184 189 194 194 193 192 192 194 194 194 194 195 197 198 200 201 201 201 200 201 199 195 196 195 193 195 199 205 207 197 194 200 204 207 207 203 204 203 199 201 205 204 205 210 217 221 210 203 225 244 235
270 269 252 236 241 257 262 257 257 247 249 243 200 220 132 139 227 18 21 288 65 21 282 203 183 188 186 188 195 202 210 204 191 189 187 182 183 185 184 184 186 187 184 185 188 186 184 189 193 194 195 194 195 195 195 195 196 197 200 200 201 203 203 200 200 202 199 199 204 199 194 198 199 198 208 213 205 203 207 206 202 203 209 213 208 204 210 215 215 215 221 232 223 211 218 235 240
252 273 295 290 254 242 228 230 259 259 258 268 249 244 121 94 334 20 360 319 337 326 286 242 202 197 191 188 190 199 211 208 195 189 188 187 186 187 188 187 188 190 188 187 187 184 184 189 191 193 195 195 196 195 195 197 198 198 201 203 202 201 200 197 197 201 199 200 206 203 199 202 201 197 202 213 212 207 212 213 206 202 208 216 214 209 215 220 220 219 221 235 247 241 234 237 246
232 259 276 279 275 266 245 241 249 252 260 272 261 239 109 46 348 324 241 258 320 339 316 267 221 201 197 190 188 198 208 209 198 189 189 191 188 189 190 186 186 187 187 189 190 187 187 189 189 190 192 192 193 193 196 199 198 196 200 205 204 202 201 198 197 200 201 202 205 203 204 206 205 205 205 208 209 208 216 219 212 208 210 216 218 216 221 226 226 224 222 227 243 254 252 250 251
220 245 253 253 265 271 280 283 259 240 248 255 258 244 116 104 322 315 293 284 325 23 343 297 283 237 201 190 188 194 199 209 206 194 193 193 190 191 190 187 189 190 189 191 192 191 190 188 188 189 189 190 191 192 196 198 197 197 200 204 205 205 205 201 198 202 204 205 206 205 206 208 208 211 213 213 209 207 217 223 219 215 214 220 229 226 228 239 244 238 232 228 230 241 249 255 262
283 274 267 249 247 249 252 268 272 258 254 261 270 272 106 101 19 331 351 18 338 47 63 299 288 273 182 167 179 187 193 210 215 202 199 195 192 194 191 191 192 190 191 192 191 191 191 189 188 188 190 192 191 192 196 197 196 198 200 202 204 207 207 203 200 204 206 206 208 208 208 209 210 212 213 216 215 210 213 220 222 220 217 223 232 227 224 236 249 250 248 242 240 256 267 264 262